TimeAKDT,TemperatureF,Dew PointF,Humidity,Sea Level PressureIn,VisibilityMPH,Wind Direction,Wind SpeedMPH,Gust SpeedMPH,PrecipitationIn,Events,Conditions,WindDirDegrees,DateUTC
12:53 AM,52.0,39.0,61,29.90,10.0,South,5.8,-,N/A,,Clear,170,2013-05-27 08:53:00
1:53 AM,48.9,37.9,66,29.91,10.0,South,3.5,-,N/A,,Clear,170,2013-05-27 09:53:00
2:53 AM,44.1,37.9,79,29.92,10.0,Calm,Calm,-,N/A,,Clear,0,2013-05-27 10:53:00
3:53 AM,41.0,37.9,89,29.93,10.0,Calm,Calm,-,N/A,,Clear,0,2013-05-27 11:53:00
4:53 AM,39.0,35.1,86,29.94,10.0,Calm,Calm,-,N/A,,Clear,0,2013-05-27 12:53:00
5:53 AM,39.0,35.1,86,29.94,10.0,North,3.5,-,N/A,,Clear,350,2013-05-27 13:53:00
5:59 AM,39.0,35.1,86,29.92,10.0,Calm,Calm,-,N/A,,Scattered Clouds,0,2013-05-27 13:59:00
6:53 AM,44.1,35.1,71,29.93,10.0,NW,3.5,-,N/A,,Scattered Clouds,320,2013-05-27 14:53:00
7:53 AM,48.9,37.0,64,29.92,10.0,NNW,4.6,-,N/A,,Scattered Clouds,340,2013-05-27 15:53:00
8:53 AM,54.0,37.0,53,29.91,10.0,Calm,Calm,-,N/A,,Scattered Clouds,0,2013-05-27 16:53:00
9:53 AM,55.9,37.0,49,29.90,10.0,Calm,Calm,-,N/A,,Partly Cloudy,0,2013-05-27 17:53:00
10:53 AM,60.1,37.0,42,29.89,10.0,Calm,Calm,-,N/A,,Partly Cloudy,0,2013-05-27 18:53:00
11:53 AM,64.9,37.0,36,29.86,10.0,Calm,Calm,-,N/A,,Partly Cloudy,0,2013-05-27 19:53:00
12:53 PM,66.0,37.0,34,29.85,10.0,SW,3.5,-,N/A,,Partly Cloudy,220,2013-05-27 20:53:00
1:53 PM,71.1,36.0,28,29.83,10.0,ESE,6.9,-,N/A,,Partly Cloudy,120,2013-05-27 21:53:00
2:53 PM,73.0,30.9,21,29.82,10.0,NW,4.6,-,N/A,,Partly Cloudy,310,2013-05-27 22:53:00
3:53 PM,73.0,30.9,21,29.81,10.0,Variable,4.6,-,N/A,,Partly Cloudy,0,2013-05-27 23:53:00
4:53 PM,75.9,28.9,18,29.79,10.0,Variable,3.5,-,N/A,,Scattered Clouds,0,2013-05-28 00:53:00
5:53 PM,72.0,27.0,19,29.79,10.0,ENE,3.5,-,N/A,,Scattered Clouds,60,2013-05-28 01:53:00
6:53 PM,73.0,28.0,19,29.77,10.0,NE,4.6,-,N/A,,Scattered Clouds,50,2013-05-28 02:53:00
7:53 PM,71.1,34.0,26,29.76,10.0,North,9.2,-,N/A,,Scattered Clouds,10,2013-05-28 03:53:00
8:53 PM,71.1,30.9,23,29.75,10.0,NNE,11.5,-,N/A,,Scattered Clouds,20,2013-05-28 04:53:00
9:27 PM,69.1,30.9,24,29.76,10.0,North,9.2,-,N/A,,Scattered Clouds,10,2013-05-28 05:27:00
9:53 PM,66.9,30.0,25,29.75,10.0,NNE,8.1,-,N/A,,Clear,20,2013-05-28 05:53:00
10:53 PM,60.1,30.9,33,29.75,10.0,NNE,8.1,-,N/A,,Clear,20,2013-05-28 06:53:00
11:53 PM,55.0,32.0,42,29.76,10.0,North,8.1,-,N/A,,Clear,360,2013-05-28 07:53:00